Mount Washington, New Hampshire, United States (03589)
Lat: 44.69N, Lon: 71.39W
Wx Zone: NHZ002
Local Info
Past Weather Observations for Today

NOTE: This archive is for the closest National Weather Service station to Mount Washington. Information may differ from the station used for current weather conditions.

Click here for Long-term Archive

Time Weather Temperature Dewpoint Humidity Pressure Winds Precip Visibility
20:52
Clear
64°F / 18°C 57°F / 14°C 78% 30.15 in
(1021 mb)
Calm - 10SM
19:52
Clear
70°F / 21°C 59°F / 15°C 69% 30.15 in
(1021 mb)
Calm - 10SM
18:52
Clear
79°F / 26°C 55°F / 13°C 45% 30.12 in
(1020 mb)
NE 5.8 mph
(NE 9 kph)
- 10SM
17:52
Clear
84°F / 29°C 55°F / 13°C 37% 30.12 in
(1020 mb)
NNE 6.9 mph
(NNE 11 kph)
- 10SM
16:52
Clear
84°F / 29°C 55°F / 13°C 37% 30.12 in
(1020 mb)
NNW 9.2 mph
(NNW 15 kph)
- 10SM
15:52
Clear
86°F / 30°C 55°F / 13°C 35% 30.09 in
(1019 mb)
NW 6.9 mph
(NW 11 kph)
- 10SM
14:52
Partly Cloudy
90°F / 32°C 55°F / 13°C 31% 30.09 in
(1019 mb)
N 8.1 mph
(N 13 kph)
- 10SM
13:52
Mostly Cloudy
88°F / 31°C 55°F / 13°C 33% 30.09 in
(1019 mb)
NNW 5.8 mph
(NNW 9 kph)
- 10SM
12:52
Partly Cloudy
88°F / 31°C 54°F / 12°C 31% 30.09 in
(1019 mb)
SSW 8.1 mph
(SSW 13 kph)
- 10SM
11:52
Partly Cloudy
88°F / 31°C 52°F / 11°C 29% 30.09 in
(1019 mb)
Variable 3.5 mph
(Variable 6 kph)
- 10SM
10:52
Partly Cloudy
86°F / 30°C 59°F / 15°C 40% 30.09 in
(1019 mb)
Variable 3.5 mph
(Variable 6 kph)
- 10SM
09:52
Partly Cloudy
82°F / 28°C 63°F / 17°C 51% 30.09 in
(1019 mb)
Variable 6.9 mph
(Variable 11 kph)
- 10SM
08:52
Clear
81°F / 27°C 63°F / 17°C 54% 30.09 in
(1019 mb)
Variable 4.6 mph
(Variable 7 kph)
- 10SM
07:52
Clear
79°F / 26°C 64°F / 18°C 61% 30.09 in
(1019 mb)
Variable 3.5 mph
(Variable 6 kph)
- 9SM
06:52
Clear
70°F / 21°C 63°F / 17°C 78% 30.09 in
(1019 mb)
Calm - 8SM
05:52
Clear
Hazy
64°F / 18°C 59°F / 15°C 83% 30.09 in
(1019 mb)
Calm - 6SM
04:52
Overcast
Fog And Mist
61°F / 16°C 57°F / 14°C 88% 30.06 in
(1018 mb)
Calm - 5SM
03:52
Mostly Cloudy
Fog And Mist
59°F / 15°C 55°F / 13°C 88% 30.04 in
(1017 mb)
Calm - 4SM
03:34
Partly Cloudy
Fog And Mist
59°F / 15°C 55°F / 13°C 88% 30.04 in
(1017 mb)
Calm - 3SM
03:24
Partly Cloudy
Fog And Mist
57°F / 14°C 55°F / 13°C 94% 30.04 in
(1017 mb)
Calm - 1 1/2SM
02:52
Partly Cloudy
Fog And Mist
61°F / 16°C 57°F / 14°C 88% 30.04 in
(1017 mb)
Calm - 6SM
01:52
Mostly Cloudy
61°F / 16°C 57°F / 14°C 88% 30.04 in
(1017 mb)
Calm - 7SM
00:52
Partly Cloudy
64°F / 18°C 59°F / 15°C 83% 30.04 in
(1017 mb)
Calm - 9SM
Time Weather Temperature Dewpoint Humidity Pressure Winds Precip Visibility


Weather for websites

WeatherForYou.com, LLC is not responsible for any damages or problems caused by this service. Current weather conditions are obtained from the closest station including government and personal stations which may have varying degrees of accuracy. Weather forecasts are derived from the NOAA NDFD. Like all things, this site belongs to Jesus Christ... He just trusts us to maintain it. If you have any questions or comments email webmaster@weatherforyou.com

Copyright © 2016, WeatherForYou.com LLC. All rights reserved.